Home > Weather > Brazzaville > Past weeks

Flag for Congo Weather for the Past 2 Weeks in Brazzaville, Congo

Now
90 °F

Passing clouds.


Feels Like: 98 °F
Forecast: 76 / 86 °F
Wind: 6 mph from West

Location: Brazzaville / Maya-Maya

Current Time: Feb 13, 2016 at 6:45:28 PM

Latest Report: Feb 13, 2016 at 5:00 PM


Visibility: N/A

Pressure: 29.77 "Hg

Humidity: 59%

Dew point: 73 °F

Location of BrazzavilleLocation

Historic Weather in Brazzaville — Graph

°F

Brazzaville Temperature Yesterday

Maximum temperature yesterday: 90 °F (at 3:00 PM)
Minimum temperature yesterday: 75 °F (at 2:00 AM)
Average temperature yesterday: 82 °F

High & Low Weather Summary for the Past Weeks

 TemperatureHumidityPressure
High95 °F (Jan 30, 3:00 PM)100% (Feb 5, 11:48 AM)30.01 "Hg (Feb 5, 11:48 AM)
Low72 °F (Feb 5, 11:48 AM)39% (Jan 30, 3:00 PM)29.77 "Hg (Jan 30, 4:00 PM)
Average82 °F75%29.90 "Hg
* Reported Jan 29 5:00 PM — Feb 13 5:00 PM, Brazzaville, Weather by CustomWeather, © 2016

Note: Actual official high and low records may vary slightly from our data, if they occured in-between our weather recording intervals... More about our weather records

Advertising

Brazzaville Weather History for the Previous 24 Hours

 ConditionsComfort  
Time TempWeatherWind HumidityBarometerVisibility
5:00 PM
Sat, Feb 13
90 °FPassing clouds.6 mph59%29.77 "HgN/A
4:00 PM90 °FScattered clouds.7 mph59%29.77 "Hg5 mi
3:00 PM91 °FScattered clouds.6 mph56%29.80 "HgN/A
2:00 PM90 °FScattered clouds.6 mph59%29.83 "HgN/A
1:00 PM88 °FScattered clouds.7 mph62%29.86 "HgN/A
12:00 PM86 °FScattered clouds.3 mph66%29.89 "HgN/A
11:00 AM86 °FScattered clouds.7 mph62%29.92 "HgN/A
10:00 AM82 °FScattered clouds.5 mph74%29.92 "HgN/A
9:00 AM81 °FPassing clouds.5 mph79%29.95 "HgN/A
8:00 AM79 °FPassing clouds.5 mph84%29.95 "Hg6 mi
7:00 AM77 °FScattered clouds.5 mph89%29.92 "HgN/A
6:00 AM77 °FPassing clouds.5 mph89%29.92 "HgN/A
5:00 AM77 °FPassing clouds.6 mph89%29.89 "Hg6 mi
4:00 AM77 °FPassing clouds.3 mph89%29.89 "Hg6 mi
3:00 AM77 °FPassing clouds.3 mph89%29.89 "Hg6 mi
2:00 AM77 °FClear.No wind89%29.89 "Hg6 mi
1:00 AM77 °FClear.No wind89%29.89 "Hg6 mi
12:00 AM79 °FClear.No wind84%29.92 "Hg6 mi
11:00 PM
Fri, Feb 12
79 °FClear.No wind84%29.92 "Hg5 mi
10:00 PM81 °FClear.No wind79%29.92 "Hg5 mi
9:00 PM82 °FClear.1 mph79%29.89 "Hg5 mi
8:00 PM84 °FClear.1 mph66%29.86 "Hg5 mi
7:00 PM84 °FPassing clouds.2 mph70%29.83 "Hg5 mi
6:00 PM88 °FPassing clouds.3 mph59%29.83 "HgN/A
Weather by CustomWeather, © 2016

See weather overviewHow to use our weather pages